Regional Weather Roundup
Issued by NWS Cleveland, OH

Home | Current Version | Previous Version | Text Only | Print | Product List | Glossary Off
Versions: 1 2 3 4 5 6 7 8 9 10 11 12 13 14 15 16 17 18 19 20 21 22 23 24 25 26 27 28 29 30 31 32 33 34 35 36 37 38 39 40 41 42 43 44 45 46 47 48 49 50

000
ASUS41 KCLE 301802
RWRCLE
OHIO REGIONAL WEATHER ROUNDUP
NATIONAL WEATHER SERVICE CLEVELAND, OH
200 PM EDT SAT APR 30 2016

NOTE: "FAIR" INDICATES FEW OR NO CLOUDS BELOW 12,000 FEET WITH NO
SIGNIFICANT WEATHER AND/OR OBSTRUCTIONS TO VISIBILITY.

OHZ001>008-015>018-024>027-034-035-043-044-301900-
   NORTHWEST OHIO

CITY           SKY/WX    TMP DP  RH WIND       PRES   REMARKS
DEFIANCE       LGT RAIN  51  42  71 E10       30.07F
FINDLAY        LGT RAIN  52  44  74 E6        30.07S
TOLEDO EXPRESS LGT RAIN  50  40  68 E9        30.10S
TOLEDO EXEC    CLOUDY    49  38  65 E6        30.12S
LIMA           LGT RAIN  48  46  93 E12       30.05F FOG
$$

OHZ009>014-019>023-028>033-038-089-301900-
   NORTHEAST OHIO

CITY           SKY/WX    TMP DP  RH WIND       PRES   REMARKS
CLE-HOPKINS    CLOUDY    54  46  74 N10       30.12S
CLE-LAKEFRONT  CLOUDY    49  44  83 N13       30.10F
CUY CO. ARPT   CLOUDY    59  46  63 N9        30.10F
LORAIN-ELYRIA  PTSUNNY   54  43  66 E7        30.09F
ASHTABULA      CLOUDY    56  45  66 SE7       30.11F
AKRON-CANTON   CLOUDY    59  47  64 SE5       30.07F
WOOSTER        CLOUDY    52  46  80 VRB3      30.10R
MANSFIELD      CLOUDY    49  45  86 SE3       30.10R
YOUNGSTOWN     CLOUDY    59  45  59 VRB3      30.09F
$$

OHZ042-051>053-060>062-070>072-077>081-301900-
  SOUTHWEST OHIO

CITY           SKY/WX    TMP DP  RH WIND       PRES   REMARKS
CINC-COVINGTON LGT RAIN  56  54  93 E12       29.97F FOG
CINC-LUNKEN    LGT RAIN  56  55  97 NE7       30.00F FOG
HAMILTON       LGT RAIN  55  53  93 E8        30.00F FOG
DAYTON         LGT RAIN  51  50  96 E12       30.01F FOG
WRIGHT-PAT AFB LGT RAIN  52  52  99 E9        30.01F FOG
DAYTON GENERAL LGT RAIN  53  50  89 E10       30.00F FOG
WILMINGTON     LGT RAIN  53  51  93 E6        30.02F FOG
$$

OHZ036-037-039>041-045>050-054>059-063>069-073>076-082>088-301900-
  CENTRAL AND SOUTHEAST OHIO

CITY           SKY/WX    TMP DP  RH WIND       PRES   REMARKS
COLUMBUS       LGT RAIN  53  50  89 CALM      30.08R
OSU AIRPORT    LGT RAIN  54  50  86 S3        30.08R FOG
BOLTON FIELD   LGT RAIN  54  52  94 S3        30.08S FOG
RICKENBACK AFB LGT RAIN  55  50  85 S3        30.08S
NEWARK         LGT RAIN  57  50  77 E3        30.08R
MARION         LGT RAIN  52  47  83 SE5       30.09R
LANCASTER      CLOUDY    56  50  80 CALM      30.09R
ZANESVILLE     LGT RAIN  60  49  66 CALM      30.08R
NEW PHILLY     CLOUDY    58  46  64 S3        30.08S
$$



USA.gov is the U.S. government's official web portal to all federal, state and local government web resources and services.